Bowling Green, Kentucky, United States (42101)
Lat: 36.99N, Lon: 86.44W
Wx Zone: KYZ071
Local Info
Past Weather Observations for Today

NOTE: This archive is for the closest National Weather Service station to Bowling Green. Information may differ from the station used for current weather conditions.

Click here for Long-term Archive

Time Weather Temperature Dewpoint Humidity Pressure Winds Precip Visibility
17:50
Clear
63°F / 17°C 30°F / -1°C 30% 30.04 in
(1017 mb)
ENE 5.8 mph
(ENE 9 kph)
- 10SM
17:30
Clear
66°F / 19°C 30°F / -1°C 26% 30.04 in
(1017 mb)
ENE 5.8 mph
(ENE 9 kph)
- 10SM
17:10
Clear
68°F / 20°C 32°F / 0°C 26% 30.04 in
(1017 mb)
ENE 5.8 mph
(ENE 9 kph)
- 10SM
16:50
Clear
70°F / 21°C 32°F / 0°C 25% 30.06 in
(1018 mb)
E 3.5 mph
(E 6 kph)
- 10SM
16:30
Clear
70°F / 21°C 30°F / -1°C 23% 30.06 in
(1018 mb)
E 6.9 mph
(E 11 kph)
- 10SM
16:10
Clear
70°F / 21°C 30°F / -1°C 23% 30.04 in
(1017 mb)
E 6.9 mph
(E 11 kph)
- 10SM
15:50
Clear
70°F / 21°C 30°F / -1°C 23% 30.04 in
(1017 mb)
ESE 10.4 mph
(ESE 17 kph)
- 10SM
15:30
Clear
70°F / 21°C 32°F / 0°C 25% 30.04 in
(1017 mb)
ENE 6.9 mph
(ENE 11 kph)
- 10SM
15:10
Clear
70°F / 21°C 30°F / -1°C 23% 30.06 in
(1018 mb)
E 8.1 mph
(E 13 kph)
- 10SM
14:50
Clear
70°F / 21°C 32°F / 0°C 25% 30.06 in
(1018 mb)
E 9.2 mph
(E 15 kph)
- 10SM
14:30
Clear
70°F / 21°C 32°F / 0°C 25% 30.06 in
(1018 mb)
ENE 6.9 mph
(ENE 11 kph)
- 10SM
14:10
Clear
70°F / 21°C 32°F / 0°C 25% 30.09 in
(1019 mb)
ENE 4.6 mph
(ENE 7 kph)
- 10SM
13:50
Clear
70°F / 21°C 34°F / 1°C 27% 30.09 in
(1019 mb)
ENE 9.2 mph
(ENE 15 kph)
- 10SM
13:30
Clear
70°F / 21°C 34°F / 1°C 27% 30.09 in
(1019 mb)
ENE 9.2 mph
(ENE 15 kph)
- 10SM
13:10
Clear
68°F / 20°C 32°F / 0°C 26% 30.09 in
(1019 mb)
E 6.9 mph
(E 11 kph)
- 10SM
12:50
Clear
68°F / 20°C 32°F / 0°C 26% 30.09 in
(1019 mb)
E 3.5 mph
(E 6 kph)
- 10SM
12:30
Clear
68°F / 20°C 32°F / 0°C 26% 30.12 in
(1020 mb)
E 5.8 mph
(E 9 kph)
- 10SM
12:10
Clear
68°F / 20°C 32°F / 0°C 26% 30.12 in
(1020 mb)
NE 8.1 mph
(NE 13 kph)
- 10SM
11:50
Clear
66°F / 19°C 32°F / 0°C 28% 30.12 in
(1020 mb)
E 11.5 mph
(E 19 kph)
- 10SM
11:30
Clear
66°F / 19°C 32°F / 0°C 28% 30.12 in
(1020 mb)
E 9.2 mph
(E 15 kph)
- 10SM
11:10
Clear
66°F / 19°C 34°F / 1°C 30% 30.12 in
(1020 mb)
E 9.2 mph
(E 15 kph)
- 10SM
10:50
Clear
64°F / 18°C 32°F / 0°C 30% 30.12 in
(1020 mb)
E 9.2 mph
(E 15 kph)
- 10SM
10:30
Clear
64°F / 18°C 34°F / 1°C 32% 30.12 in
(1020 mb)
ENE 8.1 mph
(ENE 13 kph)
- 10SM
10:10
Clear
63°F / 17°C 34°F / 1°C 34% 30.15 in
(1021 mb)
E 5.8 mph
(E 9 kph)
- 10SM
09:50
Clear
61°F / 16°C 32°F / 0°C 34% 30.15 in
(1021 mb)
ENE 9.2 mph
(ENE 15 kph)
- 10SM
09:30
Clear
61°F / 16°C 34°F / 1°C 36% 30.15 in
(1021 mb)
ESE 3.5 mph
(ESE 6 kph)
- 10SM
09:10
Clear
59°F / 15°C 34°F / 1°C 39% 30.15 in
(1021 mb)
E 6.9 mph
(E 11 kph)
- 10SM
08:50
Clear
59°F / 15°C 36°F / 2°C 42% 30.12 in
(1020 mb)
ESE 8.1 mph
(ESE 13 kph)
- 10SM
08:30
Clear
57°F / 14°C 37°F / 3°C 48% 30.12 in
(1020 mb)
ENE 6.9 mph
(ENE 11 kph)
- 10SM
08:10
Clear
55°F / 13°C 37°F / 3°C 51% 30.12 in
(1020 mb)
E 8.1 mph
(E 13 kph)
- 10SM
07:50
Clear
54°F / 12°C 39°F / 4°C 58% 30.12 in
(1020 mb)
E 8.1 mph
(E 13 kph)
- 10SM
07:30
Clear
52°F / 11°C 39°F / 4°C 62% 30.12 in
(1020 mb)
E 4.6 mph
(E 7 kph)
- 10SM
07:10
Clear
50°F / 10°C 39°F / 4°C 67% 30.12 in
(1020 mb)
E 3.5 mph
(E 6 kph)
- 10SM
06:50
Clear
46°F / 8°C 39°F / 4°C 76% 30.12 in
(1020 mb)
Calm - 10SM
06:30
Clear
41°F / 5°C 36°F / 2°C 81% 30.12 in
(1020 mb)
Calm - 10SM
06:10
Clear
37°F / 3°C 34°F / 1°C 87% 30.12 in
(1020 mb)
Calm - 10SM
05:50
Clear
36°F / 2°C 32°F / 0°C 87% 30.12 in
(1020 mb)
Calm - 10SM
05:30
Clear
37°F / 3°C 32°F / 0°C 81% 30.09 in
(1019 mb)
Calm - 10SM
05:10
Clear
39°F / 4°C 34°F / 1°C 81% 30.09 in
(1019 mb)
Calm - 10SM
04:50
Clear
39°F / 4°C 34°F / 1°C 81% 30.06 in
(1018 mb)
Calm - 10SM
04:30
Clear
37°F / 3°C 34°F / 1°C 87% 30.06 in
(1018 mb)
Calm - 10SM
04:10
Clear
37°F / 3°C 34°F / 1°C 87% 30.06 in
(1018 mb)
Calm - 10SM
03:50
Clear
41°F / 5°C 34°F / 1°C 76% 30.06 in
(1018 mb)
Calm - 10SM
03:30
Clear
39°F / 4°C 34°F / 1°C 81% 30.06 in
(1018 mb)
Calm - 10SM
03:10
Clear
41°F / 5°C 34°F / 1°C 76% 30.04 in
(1017 mb)
Calm - 10SM
02:50
Clear
41°F / 5°C 34°F / 1°C 76% 30.04 in
(1017 mb)
Calm - 10SM
02:30
Clear
43°F / 6°C 34°F / 1°C 71% 30.04 in
(1017 mb)
Calm - 10SM
02:10
Clear
43°F / 6°C 34°F / 1°C 71% 30.04 in
(1017 mb)
Calm - 10SM
01:50
Clear
45°F / 7°C 34°F / 1°C 66% 30.04 in
(1017 mb)
Calm - 10SM
01:30
Clear
46°F / 8°C 34°F / 1°C 62% 30.04 in
(1017 mb)
Calm - 10SM
01:10
Clear
48°F / 9°C 34°F / 1°C 58% 30.04 in
(1017 mb)
NE 3.5 mph
(NE 6 kph)
- 10SM
00:50
Clear
50°F / 10°C 34°F / 1°C 54% 30.04 in
(1017 mb)
NE 6.9 mph
(NE 11 kph)
- 10SM
00:30
Clear
50°F / 10°C 34°F / 1°C 54% 30.01 in
(1016 mb)
NE 8.1 mph
(NE 13 kph)
- 10SM
00:10
Clear
50°F / 10°C 36°F / 2°C 58% 30.01 in
(1016 mb)
ENE 5.8 mph
(ENE 9 kph)
- 10SM
Time Weather Temperature Dewpoint Humidity Pressure Winds Precip Visibility


Weather for websites

WeatherForYou.com, LLC is not responsible for any damages or problems caused by this service. Current weather conditions are obtained from the closest station including government and personal stations which may have varying degrees of accuracy. Weather forecasts are derived from the NOAA NDFD. Like all things, this site belongs to Jesus Christ... He just trusts me to maintain it. If you have any questions or comments email webmaster@weatherforyou.com

Copyright © 2015, WeatherForYou.com LLC. All rights reserved.